Back to catalog

EXCITE

AliveScienceSSO
NORAD 43819·PAYLOAD·🇺🇸 United States

Launched Dec 3, 2018 from Vandenberg Space Force Base

Loading…

Next Passes (next 24 hours)

TLE

FreshSource: Space-Track

Epoch: Sep 14, 2026, 12:54 UTC

1 43819U 18099BP  26257.53764950  .00001278  00000-0  89478-4 0  9991
2 43819  97.3898 292.7618 0019433  48.8326 311.4575 15.06813473425204

Track EXCITE in real time with AllMySat

Download on the App Store